Regional Weather Roundup
Issued by NWS Cleveland, OH

Home | Current Version | Previous Version | Graphics & Text | Print | Product List | Glossary On
Versions: 1 2 3 4 5 6 7 8 9 10 11 12 13 14 15 16 17 18 19 20 21 22 23 24 25 26 27 28 29 30 31 32 33 34 35 36 37 38 39 40 41 42 43 44 45 46 47 48 49 50
000
ASUS41 KCLE 111500
RWRCLE
OHIO REGIONAL WEATHER ROUNDUP
NATIONAL WEATHER SERVICE WILMINGTON, OH
1100 AM EDT FRI JUL 11 2014

NOTE: "FAIR" INDICATES FEW OR NO CLOUDS BELOW 12,000 FEET WITH NO
SIGNIFICANT WEATHER AND/OR OBSTRUCTIONS TO VISIBILITY.

OHZ001>008-015>018-024>027-034-035-043-044-111600-
   NORTHWEST OHIO

CITY           SKY/WX    TMP DP  RH WIND       PRES   REMARKS
DEFIANCE       SUNNY     75  58  55 E5        30.25R
FINDLAY        SUNNY     75  56  51 VRB6      30.23S
TOLEDO EXPRESS MOSUNNY   75  60  59 E8        30.24R
TOLEDO METCALF SUNNY     76  58  53 E7        30.24S
LIMA           SUNNY     75  58  55 E3        30.24S
$$

OHZ009>014-019>023-028>033-038-089-111600-
   NORTHEAST OHIO

CITY           SKY/WX    TMP DP  RH WIND       PRES   REMARKS
CLE-HOPKINS    SUNNY     75  61  61 N5        30.25S
CLE-LAKEFRONT  SUNNY     73  61  65 N9        30.22S
CUY CO. ARPT   SUNNY     75  63  64 E9        30.25S
LORAIN-ELYRIA  SUNNY     78  59  51 NE5       30.24S
ASHTABULA      SUNNY     75  56  51 N5        30.25S
AKRON-CANTON   SUNNY     77  56  48 E5        30.23F
WOOSTER        NOT AVBL
MANSFIELD      SUNNY     75  56  51 NE3       30.25F
YOUNGSTOWN     SUNNY     75  59  57 NE6       30.24S
$$

OHZ042-051>053-060>062-070>072-077>081-111600-
  SOUTHWEST OHIO

CITY           SKY/WX    TMP DP  RH WIND       PRES   REMARKS
CINC-COVINGTON MOSUNNY   79  58  48 SE5       30.22F
CINC-LUNKEN    SUNNY     78  64  61 CALM      30.22F
HAMILTON       SUNNY     78  61  55 CALM      30.23S
DAYTON         NOT AVBL
WRIGHT-PAT AFB SUNNY     77  60  55 SE5       30.23S
DAYTON GENERAL SUNNY     76  61  59 CALM      30.22F
WILMINGTON     SUNNY     75  62  64 SE5       30.23S
$$

OHZ036-037-039>041-045>050-054>059-063>069-073>076-082>088-111600-
  CENTRAL AND SOUTHEAST OHIO

CITY           SKY/WX    TMP DP  RH WIND       PRES   REMARKS
COLUMBUS       SUNNY     80  57  45 CALM      30.22F
OSU AIRPORT    SUNNY     77  57  50 E3        30.22F
BOLTON FIELD   SUNNY     75  59  57 CALM      30.23F
RICKENBACK AFB NOT AVBL
NEWARK         SUNNY     75  59  57 CALM      30.23S
MARION         SUNNY     76  57  51 CALM      30.24F
LANCASTER      SUNNY     78  61  55 N5        30.23S
ZANESVILLE     SUNNY     75  61  61 CALM      30.23R
NEW PHILLY     SUNNY     76  61  59 CALM      30.23F
$$



USA.gov is the U.S. government's official web portal to all federal, state and local government web resources and services.